Location: Charlebourg
(48.9080°N, 2.2507°E)
Time: 08:04:21
(UTC+00:00)

Daily predictions for brighter satellites

Satellite Brightness Start Highest point End
(mag) Time Altitude Azimuth Time Altitude Azimuth Time Altitude Azimuth
Cosmos 1980 Rocket 2.9 18:00:02 10° SSE 18:04:52 30° ESE 18:09:42 10° NE
ATLAS 2AS CENTAUR R/B 4.2 18:00:17 10° W 18:07:12 36° NNW 18:13:52 10° NE
ASTEX 1 3.5 18:03:19 10° NNE 18:08:13 55° E 18:13:06 10° S
CZ-4C R/B 4.4 18:04:29 10° N 18:08:44 54° WNW 18:12:50 10° SSW
NOSS 2-2 (C) 4.4 18:04:11 10° NW 18:09:02 82° SW 18:15:55 10° SE
SKYMED 3 4.4 18:04:59 10° NNE 18:09:07 70° ESE 18:13:12 10° S
Cosmos 2369 4.3 18:05:05 10° S 18:10:14 36° ESE 18:15:24 10° NE
Cosmos 1626 2.0 18:07:28 10° N 18:11:07 85° E 18:14:44 10° S
USA 229 DEB 4.0 18:06:02 10° NW 18:13:23 83° NE 18:21:16 10° SE
USA 229 4.0 18:06:08 10° NW 18:13:29 83° NE 18:21:22 10° SE
Cosmos 540 Rocket 3.4 18:10:43 10° NNW 18:15:50 69° ENE 18:20:56 10° SSE
Cosmos 1674 Rocket 4.2 18:14:37 10° N 18:18:40 35° ENE 18:22:43 10° SE
YAOGAN 1 2.6 18:15:08 10° SSE 18:19:23 60° ENE 18:23:39 10° N
SKYMED 2 3.8 18:15:31 10° N 18:19:52 78° WNW 18:24:13 10° SSW
SL-16 R/B 3.9 18:21:07 10° ESE 18:22:40 11° E 18:24:14 10° ENE
SL-4 R/B 2.5 18:18:27 10° WNW 18:22:50 62° N 18:27:05 12° E
Cosmos 841 Rocket 3.6 18:17:51 10° NNW 18:22:57 53° ENE 18:27:58 10° SE
OBJECT-B 1.9 18:25:24 15° E 18:26:17 17° ENE 18:28:05 10° NNE
Cosmos 1954 Rocket 4.2 18:24:30 10° SSW 18:29:40 77° WNW 18:34:53 10° NNE
Cosmos 1844 Rocket 4.3 18:27:06 10° N 18:30:57 18° NE 18:34:20 11° ENE
Cosmos 1763 Rocket 4.1 18:26:52 10° NNW 18:31:51 58° WSW 18:36:49 10° S
Meteor 2-10 4.4 18:26:50 10° SSE 18:32:16 49° E 18:37:36 10° NNE
Cosmos 2279 Rocket 4.0 18:26:09 10° N 18:32:27 84° E 18:38:43 10° S
H-2A R/B 4.3 18:32:30 12° ENE 18:33:22 13° ENE 18:35:04 10° NNE
ISS -3.7 18:30:55 10° WNW 18:34:17 75° NNE 18:36:41 18° ESE
Cosmos 2180 Rocket 4.5 18:29:16 10° N 18:35:31 69° ENE 18:41:47 10° SSE
Cosmos 2221 Rocket 3.6 18:31:07 10° N 18:35:38 68° E 18:40:09 10° SSE
Cosmos 2219 4.1 18:32:29 10° NW 18:38:04 53° WSW 18:43:38 10° S
SL-14 R/B 3.2 18:36:00 10° N 18:39:56 64° E 18:43:52 10° SSE
Aureole 1 4.1 18:38:19 10° SSW 18:41:18 83° ESE 18:44:40 10° NNE
Meteor 2-5 Rocket 4.5 18:37:36 10° N 18:42:30 31° ENE 18:46:13 15° ESE
Resurs 01 Rocket 3.4 18:42:04 14° ENE 18:42:58 14° ENE 18:45:21 10° NNE
HJ-1C 3.3 18:40:10 10° S 18:43:17 79° WSW 18:46:24 10° NNW
Cosmos 2360 4.4 18:41:14 10° SSW 18:46:57 76° WNW 18:52:43 10° NNE
Cosmos 1805 3.1 18:43:59 10° S 18:47:51 80° E 18:51:45 10° NNE
Cosmos 1378 Rocket 3.5 18:44:15 10° N 18:48:39 67° ENE 18:52:59 10° SSE
Cosmos 2263 Rocket 2.2 18:43:11 10° NNW 18:48:52 68° ENE 18:54:19 11° SE
Cosmos 1741 Rocket 4.0 18:45:36 10° S 18:50:47 59° ESE 18:55:58 10° NNE
USA 186 2.4 18:49:21 22° ESE 18:50:52 35° ENE 18:53:55 10° N
IRIDIUM 114 4.3 18:46:36 10° SSE 18:51:43 59° E 18:56:51 10° N
USA 215 3.8 18:45:33 10° ENE 18:51:54 55° NNW 18:58:15 10° W
IGS 5A 3.9 18:53:35 19° SE 18:56:09 40° ENE 19:00:02 10° N
Cosmos 2082 4.1 18:52:04 10° NNW 18:57:45 66° WSW 19:03:25 10° SSE
Cosmos 1733 Rocket 3.3 18:55:28 10° SSW 18:59:53 74° W 19:04:22 10° N
Cosmos 1766 3.3 18:56:31 10° S 19:00:19 53° E 19:04:11 10° NNE
IRIDIUM 103 4.2 18:55:40 10° S 19:00:50 70° E 19:06:03 10° N
ARGOS Delta rocket 4.4 18:55:29 10° N 19:00:51 68° WNW 19:05:56 10° SSW
Meteor 2-14 Rocket 4.3 18:55:03 10° S 19:01:05 75° E 19:07:09 10° NNE
Cosmos 1242 Rocket 3.3 18:59:09 10° SSW 19:02:39 55° WNW 19:06:10 10° N
Okean-O 2.9 19:00:42 20° SE 19:03:26 47° ENE 19:07:41 10° N
Cosmos 1814 Rocket 4.0 18:58:13 10° NNW 19:03:29 60° ENE 19:07:02 20° SE
Cosmos 1726 1.9 19:01:57 10° S 19:05:35 80° E 19:09:15 10° NNE
Resurs 1-3 4.0 19:05:38 27° ESE 19:07:29 41° ENE 19:11:37 10° N
Cosmos 1697 Rocket 3.5 19:03:21 10° SW 19:08:49 53° NW 19:14:21 10° NNE
CSL-04 Debris 4.1 19:06:20 10° SSE 19:11:43 72° ENE 19:17:07 10° NNW
Cosmos 2084 3.3 19:11:18 10° SW 19:15:06 72° NW 19:18:22 14° NE
IRS-1C Rocket 4.1 19:12:09 19° SE 19:15:50 61° ENE 19:21:02 10° N
USA-17 4.5 19:12:41 10° NW 19:15:52 64° NE 19:16:45 45° ESE
Meteor 2-21 Rocket 4.3 19:10:56 10° S 19:16:56 70° E 19:22:58 10° NNE
IRIDIUM 106 4.4 19:13:55 10° S 19:19:08 83° W 19:24:24 10° N
Cosmos 489 Rocket 4.4 19:16:21 10° S 19:22:36 65° ESE 19:28:52 10° NNE
SPOT 1/Viking Rocket 4.2 19:22:41 32° E 19:23:38 34° ENE 19:28:15 10° N
Cosmos 1470 3.7 19:28:31 31° NE 19:28:31 31° NE 19:30:53 10° NNE
CZ-4 R/B 3.0 19:25:03 10° SSW 19:28:54 37° W 19:32:50 10° NNW
CRYOSAT 2 4.3 19:29:50 25° SSE 19:32:40 70° E 19:37:33 10° N
Cosmos 2285 Rocket 4.0 19:26:37 10° NNW 19:33:00 90° ENE 19:37:15 23° SSE
MINOTAUR IV R/B 4.4 19:28:49 10° SSW 19:33:19 78° ESE 19:37:51 10° NNE
Meteor 2-16 Rocket 4.3 19:28:40 10° S 19:34:47 80° E 19:40:58 10° NNE
Timation 2 Rocket 4.5 19:28:32 10° NW 19:34:54 60° WSW 19:40:08 14° S
Gbstr 26 Del rocket 4.5 19:27:19 10° SW 19:34:56 66° SSE 19:40:02 25° ENE
Meteor 1-12 Rocket 4.3 19:29:02 10° S 19:35:02 89° E 19:41:06 10° NNE
deb Chang Zheng 4 3.5 19:35:02 53° E 19:35:12 54° ENE 19:39:15 10° N
Okean O Rocket 3.6 19:33:46 10° SSW 19:37:31 28° W 19:41:19 10° NW
SJ-6B 3.0 19:37:27 32° S 19:38:58 64° WSW 19:42:43 10° NNW
BREEZE M DEB (TANK) 3.9 19:34:32 10° SW 19:38:08 24° S 19:38:08 24° S
Cosmos 2322 Rocket 4.3 19:43:56 11° NE 19:43:56 11° NE 19:44:14 10° NE
Cosmos 2026 Rocket 3.9 19:33:33 10° S 19:39:28 59° E 19:45:25 10° NNE
BREEZE-M DEB (TANK) 4.1 19:37:33 10° W 19:39:44 25° SSW 19:39:57 25° SSW
JB-3 4.2 19:37:26 10° NNE 19:41:32 76° ESE 19:42:19 56° S
CSL-04 Rocket 3.8 19:38:43 17° S 19:42:51 74° WSW 19:48:16 10° NNW
Cosmos 1908 Rocket 3.7 19:38:51 10° SSW 19:43:11 73° W 19:47:31 10° N
Cosmos 1553 Rocket 4.3 19:37:08 10° N 19:43:12 46° ENE 19:44:28 41° ESE
Nadezhda 4 Rocket 4.3 19:39:49 10° SSW 19:46:07 68° WNW 19:52:27 10° N
MetOp-A 3.5 19:48:59 56° NNE 19:48:59 56° NNE 19:52:17 10° N
Cosmos 1980 Rocket 3.0 19:43:09 10° SW 19:48:37 51° NW 19:54:07 10° NNE
Cosmos 968 Rocket 3.4 19:45:16 10° S 19:50:29 69° ESE 19:55:43 10° NNE
Cosmos 1782 Rocket 3.4 19:50:50 72° ENE 19:50:50 72° ENE 19:54:59 10° NNE
Landsat 5 4.2 19:50:09 10° N 19:54:36 59° WNW 19:59:00 10° SSW
OBJECT-B 3.0 19:56:15 18° W 19:56:17 18° W 19:58:10 10° NW
Meteor 1-24 Rocket 3.6 19:53:18 10° NNW 19:58:38 81° W 20:00:31 41° S
Landsat 7 3.9 19:58:02 44° S 19:59:28 71° WSW 20:04:12 10° NNW
ATLAS 2AS CENTAUR R/B 4.5 19:54:21 10° NW 20:00:19 25° N 20:05:21 12° NE
Cosmos 1437 Rocket 3.1 20:00:08 56° W 20:00:26 58° WNW 20:04:09 10° N
Spot 2 4.3 20:01:39 57° NNE 20:01:39 57° NNE 20:05:09 10° N
Cosmos 2278 4.0 19:56:12 10° SW 20:01:52 69° WNW 20:07:33 10° NNE
Ariane Rocket 3.5 20:02:33 44° NE 20:02:33 44° NE 20:06:50 10° N
SL-4 R/B 2.3 19:57:58 10° WNW 20:02:29 73° SSW 20:02:29 73° SSW
SL-16 R/B 2.0 20:00:04 10° SSW 20:05:41 69° ESE 20:11:20 10° NNE
Cosmos 1570 Rocket 4.3 20:02:01 10° NNW 20:07:14 62° WSW 20:08:41 44° SSW
H-2A R/B 2.8 20:08:58 57° NNW 20:08:58 57° NNW 20:12:10 10° NNW
Meteor 1-22 Rocket 4.2 20:03:37 10° SSW 20:08:59 78° WNW 20:14:35 10° N
ISS -1.5 20:07:52 10° W 20:09:34 22° WSW 20:09:34 22° WSW
MOS 1 4.1 20:10:29 66° SE 20:11:18 83° ENE 20:17:00 10° NNW
Cosmos 1025 Rocket 3.4 20:11:06 10° NNW 20:14:56 63° NW 20:14:56 63° NW
Cosmos 1844 Rocket 2.6 20:10:13 10° NNW 20:15:55 71° ENE 20:16:00 71° ENE
Cosmos 2278 Rocket 4.0 20:13:34 10° N 20:17:18 17° NE 20:17:26 17° NE
Resurs 01 Rocket 2.0 20:19:37 60° NNW 20:19:37 60° NNW 20:23:18 10° NNW
Cosmos 1975 Rocket 3.6 20:16:34 10° NNW 20:20:46 57° W 20:20:46 57° W
Terra 3.8 20:23:49 18° NNE 20:23:49 18° NNE 20:25:35 10° N
Cosmos 1092 Rocket 4.4 20:15:51 10° SSW 20:22:07 64° WNW 20:28:22 10° N
SPOT 5 4.3 20:32:25 28° NNE 20:32:25 28° NNE 20:34:59 10° N
Cosmos 2263 Rocket 4.2 20:27:58 10° NW 20:32:17 22° WSW 20:36:03 12° SSW
USA 215 4.1 20:31:46 31° NE 20:34:18 44° N 20:40:26 10° WNW
Cosmos 1844 3.7 20:28:42 10° NNW 20:33:42 71° N 20:33:42 71° N
BREEZE-M DEB (TANK) 4.4 20:21:22 10° W 20:36:31 59° SSW 20:37:07 57° S
S3M 4.1 20:45:25 10° N 20:50:55 69° N 20:50:55 69° N
USA 281 3.4 21:06:58 66° N 21:06:58 66° N 21:12:41 10° NNW
Cosmos 2322 Rocket 3.8 21:25:40 29° N 21:25:40 29° N 21:28:37 10° NNE
SL-16 R/B 4.0 21:45:33 10° WSW 21:50:18 27° NW 21:55:05 10° NNE
ATLAS 2AS CENTAUR R/B 3.9 21:46:44 10° NW 21:52:45 36° NNE 21:52:45 36° NNE
Terra 4.4 22:02:43 17° NNW 22:02:43 17° NNW 22:03:51 10° NNW
Cosmos 2278 Rocket 4.1 21:56:50 10° NNW 21:59:16 26° NNW 21:59:16 26° NNW
USA 215 4.3 22:19:07 40° NW 22:19:07 40° NW 22:23:12 10° NW
Cosmos 1943 Rocket 4.4 22:12:11 10° NNW 22:14:00 19° N 22:14:00 19° N
